IBE04DB LEBB-LEXJ

Flight info

Callsign IBE04DB
Flight time 0h 13m
Altitude 10000
Route CALCE
Aircraft A319/M-SDE3FGHIRWY/LB1

Departure

Time 2026-04-29 10:35
Airport Bilbao Airport (LEBB)

Arrival

Time 2026-04-29 10:48
Airport Seve Ballesteros-Santander Airport (LEXJ)
Time Latitude Longitude Altitude Speed Heading
2026-04-29 10:23 43.30442 -2.90689 128 ft 0 kts 26°
2026-04-29 10:29 43.30436 -2.90693 122 ft 4 kts 26°
2026-04-29 10:30 43.30412 -2.90707 124 ft 4 kts 17°
2026-04-29 10:30 43.30387 -2.90714 124 ft 4 kts 351°
2026-04-29 10:30 43.30370 -2.90702 125 ft 1 kts 296°
2026-04-29 10:30 43.30369 -2.90702 125 ft 0 kts 296°
2026-04-29 10:32 43.30380 -2.90732 125 ft 10 kts 297°
2026-04-29 10:32 43.30404 -2.90884 128 ft 19 kts 266°
2026-04-29 10:32 43.30321 -2.91033 128 ft 22 kts 224°
2026-04-29 10:33 43.30331 -2.91143 132 ft 10 kts 271°
2026-04-29 10:33 43.30355 -2.91219 133 ft 10 kts 298°
2026-04-29 10:33 43.30406 -2.91354 133 ft 24 kts 296°
2026-04-29 10:33 43.30495 -2.91603 133 ft 32 kts 296°
2026-04-29 10:34 43.30604 -2.91898 133 ft 37 kts 297°
2026-04-29 10:34 43.30721 -2.92216 133 ft 38 kts 296°
2026-04-29 10:34 43.30787 -2.92487 133 ft 16 kts 235°
2026-04-29 10:34 43.30732 -2.92495 133 ft 14 kts 169°
2026-04-29 10:35 43.30624 -2.92452 126 ft 14 kts 140°
2026-04-29 10:35 43.30540 -2.92238 128 ft 59 kts 116°
2026-04-29 10:35 43.30204 -2.91318 150 ft 149 kts 116°
2026-04-29 10:35 43.29705 -2.89982 1022 ft 164 kts 116°
2026-04-29 10:36 43.29185 -2.88519 2078 ft 184 kts 118°
2026-04-29 10:36 43.28569 -2.86847 3123 ft 205 kts 120°
2026-04-29 10:36 43.27914 -2.85077 4624 ft 213 kts 121°
2026-04-29 10:36 43.26945 -2.83404 5696 ft 238 kts 147°
2026-04-29 10:37 43.25380 -2.82505 6881 ft 252 kts 174°
2026-04-29 10:37 43.23632 -2.82747 8360 ft 262 kts 198°
2026-04-29 10:37 43.21956 -2.84080 9259 ft 301 kts 221°
2026-04-29 10:37 43.20663 -2.86601 9661 ft 346 kts 245°
2026-04-29 10:38 43.20263 -2.90021 9822 ft 385 kts 268°
2026-04-29 10:38 43.20648 -2.93731 9859 ft 399 kts 280°
2026-04-29 10:38 43.21484 -2.97387 9863 ft 404 kts 287°
2026-04-29 10:38 43.22504 -3.00893 9858 ft 381 kts 289°
2026-04-29 10:39 43.23481 -3.04111 9798 ft 352 kts 288°
2026-04-29 10:39 43.24342 -3.07138 9686 ft 329 kts 286°
2026-04-29 10:39 43.25091 -3.10078 9552 ft 328 kts 284°
2026-04-29 10:39 43.25782 -3.13057 9426 ft 328 kts 283°
2026-04-29 10:40 43.26439 -3.16050 9284 ft 327 kts 282°
2026-04-29 10:40 43.27082 -3.19040 9158 ft 326 kts 282°
2026-04-29 10:40 43.27729 -3.22033 8821 ft 325 kts 282°
2026-04-29 10:40 43.28357 -3.24898 8613 ft 306 kts 282°
2026-04-29 10:41 43.28952 -3.27588 8157 ft 287 kts 282°
2026-04-29 10:41 43.29523 -3.30174 7403 ft 280 kts 282°
2026-04-29 10:41 43.30077 -3.32687 6616 ft 267 kts 282°
2026-04-29 10:41 43.30598 -3.35038 5943 ft 248 kts 281°
2026-04-29 10:42 43.31002 -3.37212 5587 ft 217 kts 271°
2026-04-29 10:42 43.31188 -3.38900 5464 ft 196 kts 277°
2026-04-29 10:42 43.31598 -3.40768 5385 ft 214 kts 283°
2026-04-29 10:42 43.32111 -3.42720 5275 ft 219 kts 284°
2026-04-29 10:43 43.32646 -3.44688 5178 ft 221 kts 286°
2026-04-29 10:43 43.33187 -3.46675 5066 ft 223 kts 286°
2026-04-29 10:43 43.33727 -3.48662 4846 ft 221 kts 287°
2026-04-29 10:43 43.34253 -3.50602 4573 ft 218 kts 286°
2026-04-29 10:44 43.34783 -3.52561 4269 ft 220 kts 287°
2026-04-29 10:44 43.35322 -3.54554 3982 ft 223 kts 288°
2026-04-29 10:44 43.35863 -3.56550 3681 ft 222 kts 288°
2026-04-29 10:44 43.36397 -3.58525 3390 ft 220 kts 288°
2026-04-29 10:45 43.36927 -3.60489 3103 ft 219 kts 287°
2026-04-29 10:45 43.37456 -3.62451 2816 ft 219 kts 289°
2026-04-29 10:45 43.37984 -3.64407 2527 ft 216 kts 290°
2026-04-29 10:45 43.38504 -3.66338 2235 ft 214 kts 290°
2026-04-29 10:46 43.39006 -3.68203 1953 ft 202 kts 290°
2026-04-29 10:46 43.39481 -3.69969 1700 ft 192 kts 290°
2026-04-29 10:46 43.39931 -3.71646 1467 ft 181 kts 290°
2026-04-29 10:46 43.40357 -3.73229 1195 ft 171 kts 290°
2026-04-29 10:47 43.40758 -3.74724 967 ft 160 kts 291°
2026-04-29 10:47 43.41114 -3.76052 776 ft 138 kts 291°
2026-04-29 10:47 43.41424 -3.77227 586 ft 125 kts 291°
2026-04-29 10:47 43.41726 -3.78313 411 ft 119 kts 293°
2026-04-29 10:48 43.42009 -3.79360 271 ft 118 kts 291°
2026-04-29 10:48 43.42286 -3.80423 105 ft 116 kts 291°
2026-04-29 10:48 43.42553 -3.81426 23 ft 101 kts 290°
2026-04-29 10:48 43.42728 -3.82079 18 ft 38 kts 289°
2026-04-29 10:49 43.42707 -3.82236 19 ft 14 kts 200°
2026-04-29 10:49 43.42621 -3.82261 19 ft 11 kts 153°
2026-04-29 10:49 43.42584 -3.82180 21 ft 10 kts 115°
2026-04-29 10:49 43.42575 -3.82149 19 ft 0 kts 110°
2026-04-29 10:50 43.42565 -3.82111 19 ft 12 kts 110°
2026-04-29 10:50 43.42525 -3.81959 19 ft 17 kts 110°
2026-04-29 10:50 43.42490 -3.81822 19 ft 13 kts 110°
2026-04-29 10:51 43.42460 -3.81710 21 ft 15 kts 110°
2026-04-29 10:51 43.42403 -3.81505 19 ft 27 kts 111°
2026-04-29 10:51 43.42381 -3.81422 20 ft 0 kts 108°
2026-04-29 10:52 43.42379 -3.81363 19 ft 10 kts 73°
2026-04-29 10:53 43.42405 -3.81337 19 ft 4 kts 21°
2026-04-29 10:53 43.42418 -3.81330 20 ft 0 kts 20°
2026-04-29 10:53 43.42493 -3.81288 22 ft 11 kts 24°
2026-04-29 10:54 43.42524 -3.81317 22 ft 0 kts 293°
2026-04-29 10:54 43.42533 -3.81353 24 ft 20 kts 289°
2026-04-29 10:55 43.42548 -3.81413 24 ft 0 kts 291°
2026-04-29 10:55 43.42556 -3.81442 22 ft 20 kts 291°
2026-04-29 10:55 43.42715 -3.82032 18 ft 110 kts 290°
2026-04-29 10:55 43.43055 -3.83308 258 ft 157 kts 291°
2026-04-29 10:56 43.43424 -3.84758 1038 ft 164 kts 289°
2026-04-29 10:56 43.43825 -3.86240 1769 ft 173 kts 291°
2026-04-29 10:56 43.44288 -3.87882 2185 ft 195 kts 291°
2026-04-29 10:56 43.44810 -3.89740 2572 ft 220 kts 290°
2026-04-29 10:57 43.45204 -3.91880 3053 ft 244 kts 269°
2026-04-29 10:57 43.44731 -3.94177 3627 ft 259 kts 234°
2026-04-29 10:57 43.43352 -3.95752 4557 ft 262 kts 201°
2026-04-29 10:57 43.41549 -3.96047 5520 ft 265 kts 175°
2026-04-29 10:58 43.39706 -3.95797 6509 ft 267 kts 174°
2026-04-29 10:58 43.37848 -3.95513 7448 ft 270 kts 174°
2026-04-29 10:58 43.35979 -3.95222 8447 ft 271 kts 175°
2026-04-29 10:58 43.34101 -3.94931 9471 ft 272 kts 175°
2026-04-29 10:59 43.32199 -3.94641 10261 ft 282 kts 175°
2026-04-29 10:59 43.30168 -3.94340 10592 ft 305 kts 175°
2026-04-29 10:59 43.27974 -3.94019 10938 ft 326 kts 175°
2026-04-29 10:59 43.25689 -3.93682 11613 ft 333 kts 175°
2026-04-29 11:00 43.23367 -3.93434 12360 ft 337 kts 181°
2026-04-29 11:00 43.21022 -3.93698 13122 ft 340 kts 187°
2026-04-29 11:00 43.18659 -3.94061 13885 ft 344 kts 188°
2026-04-29 11:00 43.16258 -3.94427 14558 ft 350 kts 187°
2026-04-29 11:01 43.13836 -3.94792 15346 ft 351 kts 187°
2026-04-29 11:01 43.11426 -3.95156 16029 ft 354 kts 187°
2026-04-29 11:01 43.08968 -3.95525 16712 ft 357 kts 187°
2026-04-29 11:01 43.06487 -3.95898 17391 ft 360 kts 187°
2026-04-29 11:02 43.03981 -3.96275 18062 ft 364 kts 187°
2026-04-29 11:02 43.01451 -3.96655 18638 ft 367 kts 187°
2026-04-29 11:02 42.98896 -3.97039 19235 ft 370 kts 187°
2026-04-29 11:02 42.96328 -3.97425 19835 ft 372 kts 187°
2026-04-29 11:03 42.93744 -3.97812 20429 ft 374 kts 187°
2026-04-29 11:03 42.91173 -3.98190 20995 ft 377 kts 187°
2026-04-29 11:03 42.88522 -3.98573 21551 ft 380 kts 187°
2026-04-29 11:03 42.85917 -3.98949 22099 ft 382 kts 187°
2026-04-29 11:04 42.83264 -3.99333 22626 ft 385 kts 187°
2026-04-29 11:04 42.80590 -3.99723 23163 ft 387 kts 187°
2026-04-29 11:04 42.77899 -4.00114 23644 ft 390 kts 187°
2026-04-29 11:04 42.75226 -4.00503 24047 ft 392 kts 187°
2026-04-29 11:05 42.72466 -4.00906 24477 ft 394 kts 187°
2026-04-29 11:05 42.69728 -4.01302 24886 ft 397 kts 187°
2026-04-29 11:05 42.66974 -4.01701 25292 ft 399 kts 187°
2026-04-29 11:05 42.64204 -4.02103 25701 ft 402 kts 187°
2026-04-29 11:06 42.61421 -4.02506 26103 ft 404 kts 186°
2026-04-29 11:06 42.58620 -4.02908 26506 ft 406 kts 186°
2026-04-29 11:06 42.55804 -4.03315 26900 ft 408 kts 186°
2026-04-29 11:06 42.53002 -4.03720 27270 ft 411 kts 187°
2026-04-29 11:07 42.50146 -4.04131 27625 ft 414 kts 186°
2026-04-29 11:07 42.47274 -4.04544 27990 ft 416 kts 186°
2026-04-29 11:07 42.44381 -4.04960 28344 ft 419 kts 187°
2026-04-29 11:07 42.41475 -4.05379 28694 ft 421 kts 187°
2026-04-29 11:08 42.38560 -4.05799 29032 ft 423 kts 186°
2026-04-29 11:08 42.35624 -4.06220 29363 ft 425 kts 187°
2026-04-29 11:08 42.32675 -4.06644 29690 ft 427 kts 186°
2026-04-29 11:08 42.29703 -4.07071 30001 ft 430 kts 186°
2026-04-29 11:09 42.26735 -4.07496 30359 ft 429 kts 186°
2026-04-29 11:09 42.23769 -4.07920 30732 ft 428 kts 186°
2026-04-29 11:09 42.20810 -4.08343 30834 ft 424 kts 186°
2026-04-29 11:10 42.15007 -4.09173 30851 ft 417 kts 186°
2026-04-29 11:10 42.09230 -4.09993 30854 ft 418 kts 186°
2026-04-29 11:11 42.03440 -4.10816 30852 ft 419 kts 186°
2026-04-29 11:11 41.97642 -4.11568 30851 ft 419 kts 185°
2026-04-29 11:12 41.91830 -4.12199 30850 ft 419 kts 185°
2026-04-29 11:12 41.86062 -4.12821 30849 ft 418 kts 185°
2026-04-29 11:13 41.80255 -4.13476 30626 ft 418 kts 185°
2026-04-29 11:13 41.77352 -4.13810 30378 ft 418 kts 185°
2026-04-29 11:13 41.74420 -4.14089 30135 ft 430 kts 181°
2026-04-29 11:13 41.71400 -4.13552 29893 ft 445 kts 169°
2026-04-29 11:14 41.68359 -4.12617 29597 ft 451 kts 168°
2026-04-29 11:14 41.65311 -4.11610 28972 ft 450 kts 165°
2026-04-29 11:14 41.62356 -4.10303 27666 ft 454 kts 163°
2026-04-29 11:14 41.59323 -4.08881 26355 ft 458 kts 162°
2026-04-29 11:15 41.56318 -4.07424 25165 ft 462 kts 162°
2026-04-29 11:15 41.53328 -4.05954 24012 ft 464 kts 162°
2026-04-29 11:15 41.50264 -4.04452 23013 ft 461 kts 162°
2026-04-29 11:15 41.47264 -4.02994 22321 ft 458 kts 162°
2026-04-29 11:16 41.44311 -4.01578 21873 ft 456 kts 163°
2026-04-29 11:16 41.41329 -4.00164 21548 ft 454 kts 163°
2026-04-29 11:16 41.38352 -3.98763 21301 ft 452 kts 163°
2026-04-29 11:16 41.35387 -3.97369 21093 ft 451 kts 163°
2026-04-29 11:17 41.32432 -3.95975 20923 ft 450 kts 163°
2026-04-29 11:17 41.29483 -3.94575 20770 ft 450 kts 163°
2026-04-29 11:17 41.26569 -3.93043 20629 ft 452 kts 156°
2026-04-29 11:17 41.23963 -3.90689 20512 ft 457 kts 143°
2026-04-29 11:18 41.21538 -3.87965 20392 ft 456 kts 143°
2026-04-29 11:18 41.19190 -3.85288 20175 ft 430 kts 142°
2026-04-29 11:18 41.17000 -3.82765 19833 ft 404 kts 143°
2026-04-29 11:18 41.14912 -3.80361 19138 ft 394 kts 143°
2026-04-29 11:19 41.12851 -3.78006 18403 ft 389 kts 143°
2026-04-29 11:19 41.10806 -3.75686 17567 ft 385 kts 143°
2026-04-29 11:19 41.08778 -3.73390 16723 ft 380 kts 143°
2026-04-29 11:19 41.06777 -3.71124 15885 ft 375 kts 143°
2026-04-29 11:20 41.04808 -3.68890 15072 ft 370 kts 143°
2026-04-29 11:20 41.02915 -3.66744 14814 ft 353 kts 143°
2026-04-29 11:20 41.01106 -3.64692 14697 ft 332 kts 144°
2026-04-29 11:20 40.99403 -3.62758 14575 ft 313 kts 144°
2026-04-29 11:21 40.97788 -3.60929 14227 ft 298 kts 145°
2026-04-29 11:21 40.96251 -3.59294 14070 ft 267 kts 153°
2026-04-29 11:21 40.94680 -3.58264 13888 ft 240 kts 167°
2026-04-29 11:21 40.93106 -3.57772 13403 ft 228 kts 179°
2026-04-29 11:22 40.91545 -3.57709 12746 ft 223 kts 184°
2026-04-29 11:22 40.90024 -3.57709 12191 ft 215 kts 183°
2026-04-29 11:22 40.88552 -3.57696 11605 ft 209 kts 183°
2026-04-29 11:22 40.87122 -3.57683 11062 ft 202 kts 183°
2026-04-29 11:23 40.85719 -3.57674 10579 ft 196 kts 182°
2026-04-29 11:23 40.84364 -3.57666 9991 ft 197 kts 183°
2026-04-29 11:23 40.82988 -3.57659 9355 ft 197 kts 182°
2026-04-29 11:23 40.81618 -3.57651 8736 ft 196 kts 182°
2026-04-29 11:24 40.80385 -3.57643 8190 ft 193 kts 183°
2026-04-29 11:24 40.79051 -3.57635 7652 ft 190 kts 183°
2026-04-29 11:24 40.77756 -3.57627 7155 ft 183 kts 182°
2026-04-29 11:24 40.76499 -3.57620 6772 ft 177 kts 183°
2026-04-29 11:25 40.75311 -3.57612 6503 ft 165 kts 183°
2026-04-29 11:25 40.74188 -3.57605 6278 ft 157 kts 182°
2026-04-29 11:25 40.73126 -3.57599 6070 ft 149 kts 183°
2026-04-29 11:25 40.72056 -3.57595 5877 ft 162 kts 182°
2026-04-29 11:26 40.69778 -3.57582 5429 ft 164 kts 182°
2026-04-29 11:26 40.68642 -3.57575 5211 ft 163 kts 182°
2026-04-29 11:26 40.67515 -3.57568 4994 ft 163 kts 182°
2026-04-29 11:27 40.66371 -3.57562 4783 ft 167 kts 181°
2026-04-29 11:27 40.65197 -3.57555 4560 ft 169 kts 182°
2026-04-29 11:27 40.64018 -3.57548 4330 ft 171 kts 181°
2026-04-29 11:27 40.63615 -3.57546 4256 ft 172 kts 181°
2026-04-29 11:28 40.62877 -3.57545 4119 ft 170 kts 181°
2026-04-29 11:28 40.61685 -3.57536 3884 ft 173 kts 182°
2026-04-29 11:28 40.60476 -3.57528 3644 ft 174 kts 180°
2026-04-29 11:28 40.59260 -3.57521 3413 ft 177 kts 179°
2026-04-29 11:29 40.58038 -3.57513 3159 ft 170 kts 179°
2026-04-29 11:29 40.56892 -3.57507 2932 ft 159 kts 179°
2026-04-29 11:29 40.55836 -3.57501 2756 ft 145 kts 178°
2026-04-29 11:29 40.54889 -3.57496 2567 ft 133 kts 177°
2026-04-29 11:30 40.53965 -3.57483 2378 ft 129 kts 179°
2026-04-29 11:30 40.53063 -3.57486 2202 ft 130 kts 180°
2026-04-29 11:30 40.52172 -3.57475 2038 ft 127 kts 179°
2026-04-29 11:30 40.51374 -3.57469 1997 ft 99 kts 179°
2026-04-29 11:31 40.50779 -3.57463 1997 ft 73 kts 180°
2026-04-29 11:31 40.50318 -3.57461 1990 ft 64 kts 180°
2026-04-29 11:31 40.49913 -3.57552 1984 ft 42 kts 205°
2026-04-29 11:31 40.49749 -3.57688 1986 ft 23 kts 228°
2026-04-29 11:32 40.49737 -3.57848 1996 ft 16 kts 268°
2026-04-29 11:32 40.49735 -3.57986 2001 ft 14 kts 268°
2026-04-29 11:32 40.49734 -3.58111 2005 ft 13 kts 270°
2026-04-29 11:32 40.49735 -3.58223 2008 ft 12 kts 271°
2026-04-29 11:33 40.49736 -3.58324 2011 ft 10 kts 270°
2026-04-29 11:33 40.49737 -3.58387 2015 ft 10 kts 270°
2026-04-29 11:33 40.49736 -3.58415 2015 ft 9 kts 268°
2026-04-29 11:33 40.49735 -3.58495 2019 ft 8 kts 269°
2026-04-29 11:34 40.49733 -3.58565 2029 ft 7 kts 267°
2026-04-29 11:34 40.49731 -3.58628 2022 ft 8 kts 269°
2026-04-29 11:34 40.49732 -3.58712 2025 ft 10 kts 272°
2026-04-29 11:34 40.49734 -3.58764 2022 ft 0 kts 272°
2026-04-29 11:35 40.49734 -3.58765 2022 ft 1 kts 272°
2026-04-29 11:35 40.49706 -3.58808 2027 ft 17 kts 205°
2026-04-29 11:35 40.49587 -3.58816 2022 ft 18 kts 181°
2026-04-29 11:36 40.49463 -3.58815 2022 ft 18 kts 179°
2026-04-29 11:36 40.49339 -3.58814 2022 ft 18 kts 179°
2026-04-29 11:36 40.49216 -3.58813 2022 ft 16 kts 180°
2026-04-29 11:36 40.49104 -3.58813 2028 ft 13 kts 180°
2026-04-29 11:37 40.49084 -3.58860 2027 ft 10 kts 264°
2026-04-29 11:37 40.49079 -3.58949 2022 ft 7 kts 269°
2026-04-29 11:37 40.49079 -3.58955 2022 ft 0 kts 269°
2026-04-29 11:37 40.49079 -3.58968 2022 ft 0 kts 269°